Winnipeg 'A' Cs, Canada

2:52 AM CST on February 09, 2016 (GMT -0600)
Winnipeg International

Weather History for CYWG - March, 2013

Change the Weather History Date:

Friday, March 15, 2013

  Actual Average Record
Temperature  
Mean Temperature 2 °F -  
Max Temperature 4 °F 25 °F 57 °F (2012)
Min Temperature -2 °F 8 °F -13 °F (1997)
Degree Days  
Heating Degree Days 62    
Moisture  
Dew Point -4 °F    
Average Humidity 68    
Maximum Humidity 85    
Minimum Humidity 40    
Precipitation  
Precipitation 0.00 in - - ()
Sea Level Pressure  
Sea Level Pressure 30.28 in    
Wind  
Wind Speed 14 mph ()    
Max Wind Speed 20 mph    
Max Gust Speed 25 mph    
Visibility 12.0 miles    
Events Snow    
Averages and records for this station are not official NWS values.
T = Trace of Precipitation, MM = Missing Value Source: Averaged Metar Reports

Daily Weather History Graph

Daily Weather History Graph

Search for Another Location

Airport or City:

Trip Planner

Search our weather history database for the weather conditions in past years. The results will help you decide how hot, cold, wet, or windy it might be!

Date:

Astronomy

Mar. 15, 2013 Rise Set
Actual Time 7:41 AM CDT 7:34 PM CDT
Civil Twilight 7:09 AM CDT 8:06 PM CDT
Nautical Twilight 6:32 AM CDT 8:44 PM CDT
Astronomical Twilight 5:53 AM CDT 9:23 PM CDT
Moon 9:07 AM CDT (3/15) No Moon Set
Length of Visible Light 12h 56m
Length of Day
11h 52m
Waxing Crescent, 15% of the Moon is Illuminated
Mar 15
Waxing Crescent
Mar 19
First Quarter
Mar 27
Full
Apr 2
Last Quarter
Apr 10
New

Hourly Weather History & Observations

Time (CDT) Temp. Windchill Dew Point Humidity Pressure Visibility Wind Dir Wind Speed Gust Speed Precip Events Conditions
12:00 AM 10.4 °F -6.6 °F 3.2 °F 73% 30.27 in 15.0 mi North 16.1 mph - N/A   Overcast
1:00 AM 9 °F - 3 °F 68% 30.27 in 9 mi Calm Calm - -  
1:00 AM 8.6 °F -7.7 °F 1.4 °F 73% 30.28 in 15.0 mi North 13.8 mph - N/A   Overcast
2:00 AM 8.6 °F -10.0 °F 1.4 °F 73% 30.29 in 15.0 mi North 18.4 mph - N/A   Overcast
3:00 AM 6.8 °F -11.8 °F -0.4 °F 72% 30.30 in 15.0 mi North 17.3 mph - N/A   Overcast
4:00 AM 5.0 °F -14.7 °F -2.2 °F 72% 30.29 in 15.0 mi NNE 18.4 mph 25.3 mph N/A   Overcast
5:00 AM 5.0 °F -14.7 °F -2.2 °F 72% 30.29 in 15.0 mi NNE 18.4 mph 24.2 mph N/A   Overcast
6:00 AM 3.2 °F -15.9 °F -4.0 °F 72% 30.30 in 15.0 mi NNE 16.1 mph 24.2 mph N/A   Overcast
7:00 AM 2 °F - -8 °F 48% 30.29 in 9 mi Calm Calm - -  
7:00 AM 1.4 °F -18.8 °F -7.6 °F 66% 30.29 in 15.0 mi NNE 17.3 mph - N/A   Mostly Cloudy
8:00 AM 1.4 °F -19.4 °F -7.6 °F 66% 30.30 in 15.0 mi NNE 18.4 mph - N/A   Overcast
9:00 AM 1.4 °F -19.9 °F -7.6 °F 66% 30.31 in 15.0 mi NNE 19.6 mph - N/A   Overcast
10:00 AM 1.4 °F -18.2 °F -7.6 °F 66% 30.30 in 15.0 mi NNE 16.1 mph 21.9 mph N/A   Overcast
11:00 AM 1.4 °F -19.4 °F -5.8 °F 72% 30.29 in 15.0 mi NNE 18.4 mph - N/A   Overcast
12:00 PM 1.4 °F -16.9 °F -5.8 °F 72% 30.27 in 15.0 mi NNE 13.8 mph - N/A   Overcast
1:00 PM 2 °F - -6 °F 57% 30.27 in 9 mi Calm Calm - -  
1:00 PM 3.2 °F -15.3 °F -5.8 °F 66% 30.27 in 15.0 mi NNE 15.0 mph - N/A   Overcast
2:00 PM 3.2 °F -16.5 °F -5.8 °F 66% 30.27 in 15.0 mi NNE 17.3 mph - N/A   Overcast
3:00 PM 3.2 °F -17.6 °F -5.8 °F 66% 30.27 in 15.0 mi NNE 19.6 mph - N/A   Overcast
4:00 PM 3.2 °F -15.9 °F -4.0 °F 72% 30.27 in 12.0 mi North 16.1 mph - N/A Snow Light Snow
5:00 PM 5.0 °F -14.7 °F -7.6 °F 56% 30.27 in 5.0 mi North 18.4 mph - N/A Snow Light Snow
6:00 PM 5.0 °F -13.6 °F -4.0 °F 66% 30.27 in 5.0 mi NNE 16.1 mph - N/A Snow Light Snow
7:00 PM 4 °F - -9 °F 40% 30.27 in 6 mi Calm Calm - -   Unknown Precipitation
7:00 PM 3.2 °F -15.3 °F -4.0 °F 72% 30.27 in 6.0 mi North 15.0 mph - N/A Snow Light Snow
8:00 PM 3.2 °F -14.6 °F -2.2 °F 78% 30.28 in 3.0 mi NNE 13.8 mph - N/A Snow Light Snow
9:00 PM 3.2 °F -12.2 °F -2.2 °F 78% 30.28 in 7.0 mi North 10.4 mph - N/A Snow Light Snow
10:00 PM 1.4 °F -12.5 °F -2.2 °F 85% 30.29 in 10.0 mi North 8.1 mph - N/A Snow Light Snow
11:00 PM -2.2 °F -14.2 °F -7.6 °F 78% 30.30 in 15.0 mi North 5.8 mph - N/A   Mostly Cloudy